| time (UTC) | temp F | wind direction | speed knots | gust knots | rain 1hr in | rain 24hr in | rain mn in | humidity % | barometer mb |
| 20260502170204 | 57 | 322 | 7.0 | 12.2 | 0.00 | 0.00 | 0.00 | 36 | 1014.2 |
| 20260502163705 | 57 | 356 | 4.3 | 7.8 | 0.00 | 0.00 | 0.00 | 39 | 1014.7 |
| 20260502162705 | 55 | 14 | 4.3 | 12.2 | 0.00 | 0.00 | 0.00 | 38 | 1014.7 |
| 20260502162204 | 55 | 320 | 7.0 | 12.2 | 0.00 | 0.00 | 0.00 | 38 | 1014.8 |
| 20260502161705 | 55 | 301 | 5.2 | 14.8 | 0.00 | 0.00 | 0.00 | 37 | 1014.9 |
| 20260502161205 | 55 | 322 | 4.3 | 14.8 | 0.00 | 0.00 | 0.00 | 38 | 1015.0 |
| 20260502160704 | 56 | 331 | 5.2 | 13.0 | 0.00 | 0.00 | 0.00 | 38 | 1015.2 |
| 20260502160205 | 56 | 284 | 5.2 | 12.2 | 0.00 | 0.00 | 0.00 | 38 | 1015.0 |
| 20260502151704 | 53 | 20 | 1.7 | 7.8 | 0.00 | 0.00 | 0.00 | 44 | 1015.2 |
| 20260502151205 | 53 | 346 | 3.5 | 7.8 | 0.00 | 0.00 | 0.00 | 42 | 1015.2 |
| 20260502150704 | 53 | 51 | 3.5 | 7.8 | 0.00 | 0.00 | 0.00 | 45 | 1015.3 |
| 20260502150204 | 53 | 353 | 2.6 | 8.7 | 0.00 | 0.00 | 0.00 | 45 | 1015.3 |
| 20260502130705 | 50 | 332 | 1.7 | 7.8 | 0.00 | 0.00 | 0.00 | 53 | 1015.3 |
| 20260502130204 | 50 | 324 | 4.3 | 8.7 | 0.00 | 0.00 | 0.00 | 53 | 1015.2 |
| 20260502123705 | 50 | 331 | 5.2 | 10.4 | 0.00 | 0.00 | 0.00 | 54 | 1015.1 |
| 20260502123204 | 49 | 313 | 3.5 | 10.4 | 0.00 | 0.00 | 0.00 | 54 | 1015.1 |
| 20260502122705 | 49 | 334 | 6.1 | 12.2 | 0.00 | 0.00 | 0.00 | 54 | 1015.1 |
| 20260502122205 | 49 | 355 | 4.3 | 13.0 | 0.00 | 0.00 | 0.00 | 54 | 1015.1 |
| 20260502121704 | 49 | 319 | 7.0 | 13.0 | 0.00 | 0.00 | 0.00 | 53 | 1015.0 |
| 20260502121205 | 49 | 297 | 7.8 | 13.0 | 0.00 | 0.00 | 0.00 | 53 | 1015.0 |
| 20260502120704 | 49 | 320 | 7.8 | 12.2 | 0.00 | 0.00 | 0.00 | 53 | 1015.0 |
| 20260502120204 | 49 | 325 | 6.1 | 12.2 | 0.00 | 0.00 | 0.00 | 54 | 1014.9 |
| 20260502115705 | 49 | 315 | 7.0 | 15.6 | 0.00 | 0.00 | 0.00 | 53 | 1014.7 |
| 20260502115205 | 49 | 335 | 7.0 | 15.6 | 0.00 | 0.00 | 0.00 | 54 | 1014.7 |
| 20260502114704 | 49 | 348 | 6.1 | 11.3 | 0.00 | 0.00 | 0.00 | 54 | 1014.8 |
| 20260502114204 | 49 | 322 | 6.1 | 13.9 | 0.00 | 0.00 | 0.00 | 54 | 1014.7 |
| 20260502113205 | 49 | 321 | 6.1 | 13.9 | 0.00 | 0.00 | 0.00 | 53 | 1014.4 |
| 20260502112705 | 49 | 316 | 7.0 | 12.2 | 0.00 | 0.00 | 0.00 | 52 | 1014.6 |
| 20260502112204 | 49 | 338 | 6.1 | 12.2 | 0.00 | 0.00 | 0.00 | 52 | 1014.6 |
| 20260502111704 | 49 | 323 | 7.0 | 13.0 | 0.00 | 0.00 | 0.00 | 52 | 1014.5 |
| 20260502111205 | 50 | 323 | 5.2 | 13.9 | 0.00 | 0.00 | 0.00 | 52 | 1014.5 |
| 20260502110705 | 50 | 304 | 8.7 | 13.9 | 0.00 | 0.00 | 0.00 | 50 | 1014.5 |
| 20260502110204 | 50 | 323 | 6.1 | 17.4 | 0.00 | 0.00 | 0.00 | 50 | 1014.4 |
| 20260502105705 | 50 | 351 | 6.1 | 17.4 | 0.00 | 0.00 | 0.00 | 49 | 1014.4 |
| 20260502105205 | 50 | 303 | 7.8 | 13.9 | 0.00 | 0.00 | 0.00 | 50 | 1014.4 |
| 20260502104705 | 50 | 309 | 7.8 | 13.9 | 0.00 | 0.00 | 0.00 | 49 | 1014.5 |
| 20260502104204 | 50 | 331 | 7.8 | 13.0 | 0.00 | 0.00 | 0.00 | 50 | 1014.5 |
| 20260502103704 | 50 | 334 | 8.7 | 13.0 | 0.00 | 0.00 | 0.00 | 50 | 1014.5 |
| 20260502103204 | 50 | 305 | 6.1 | 11.3 | 0.00 | 0.00 | 0.00 | 52 | 1014.6 |
| 20260502102705 | 50 | 317 | 6.1 | 10.4 | 0.00 | 0.00 | 0.00 | 52 | 1014.6 |
| 20260502102205 | 50 | 313 | 6.1 | 11.3 | 0.00 | 0.00 | 0.00 | 51 | 1014.5 |
| 20260502101704 | 50 | 305 | 7.8 | 11.3 | 0.00 | 0.00 | 0.00 | 51 | 1014.5 |
| 20260502101204 | 51 | 317 | 6.1 | 13.9 | 0.00 | 0.00 | 0.00 | 50 | 1014.5 |
| 20260502100705 | 51 | 335 | 7.8 | 13.9 | 0.00 | 0.00 | 0.00 | 50 | 1014.7 |
| 20260502100204 | 51 | 319 | 5.2 | 12.2 | 0.00 | 0.00 | 0.00 | 50 | 1014.6 |
| 20260502091205 | 52 | 342 | 6.1 | 12.2 | 0.00 | 0.00 | 0.00 | 52 | 1014.5 |
| 20260502090704 | 51 | 344 | 6.1 | 13.0 | 0.00 | 0.00 | 0.00 | 55 | 1014.6 |
| 20260502090204 | 51 | 310 | 6.1 | 13.0 | 0.00 | 0.00 | 0.00 | 56 | 1014.6 |
| 20260502071204 | 53 | 329 | 7.8 | 13.9 | 0.00 | 0.00 | 0.00 | 60 | 1013.9 |
| 20260502070704 | 53 | 327 | 6.1 | 13.9 | 0.00 | 0.00 | 0.00 | 60 | 1013.9 |
| 20260502070205 | 53 | 320 | 7.8 | 13.9 | 0.00 | 0.00 | 0.00 | 60 | 1014.0 |
| 20260502065205 | 53 | 330 | 6.1 | 13.9 | 0.00 | 0.00 | 0.00 | 60 | 1014.0 |
| 20260502064705 | 53 | 311 | 6.1 | 12.2 | 0.00 | 0.00 | 0.00 | 59 | 1013.9 |
| 20260502064204 | 53 | 310 | 5.2 | 8.7 | 0.00 | 0.00 | 0.00 | 59 | 1014.0 |
| 20260502063705 | 53 | 308 | 5.2 | 11.3 | 0.00 | 0.00 | 0.00 | 59 | 1014.0 |
| 20260502063205 | 53 | 302 | 6.1 | 11.3 | 0.00 | 0.00 | 0.00 | 59 | 1014.2 |
| 20260502062705 | 53 | 311 | 6.1 | 10.4 | 0.00 | 0.00 | 0.00 | 59 | 1014.2 |
| 20260502062204 | 53 | 305 | 5.2 | 10.4 | 0.00 | 0.00 | 0.00 | 59 | 1014.2 |
| 20260502061704 | 53 | 330 | 4.3 | 10.4 | 0.00 | 0.00 | 0.00 | 58 | 1014.3 |
| 20260502061205 | 53 | 303 | 6.1 | 10.4 | 0.00 | 0.00 | 0.00 | 58 | 1014.4 |
| 20260502060204 | 54 | 322 | 6.1 | 11.3 | 0.00 | 0.00 | 0.00 | 57 | 1014.5 |
| 20260502055704 | 54 | 330 | 5.2 | 11.3 | 0.00 | 0.00 | 0.00 | 57 | 1014.4 |
| 20260502055205 | 54 | 299 | 5.2 | 10.4 | 0.00 | 0.00 | 0.00 | 57 | 1014.3 |
| 20260502054704 | 54 | 327 | 7.0 | 12.2 | 0.00 | 0.00 | 0.00 | 56 | 1014.3 |
| 20260502053205 | 54 | 307 | 6.1 | 12.2 | 0.00 | 0.00 | 0.00 | 55 | 1014.2 |
| 20260502052704 | 55 | 308 | 7.0 | 12.2 | 0.00 | 0.00 | 0.00 | 55 | 1014.2 |
| 20260502052204 | 55 | 325 | 6.1 | 13.0 | 0.00 | 0.00 | 0.00 | 54 | 1014.2 |
| 20260502051704 | 55 | 325 | 7.0 | 13.0 | 0.00 | 0.00 | 0.00 | 54 | 1014.2 |
| 20260502050704 | 55 | 304 | 7.8 | 15.6 | 0.00 | 0.00 | 0.00 | 54 | 1014.2 |
| 20260502050204 | 55 | 349 | 7.8 | 15.6 | 0.00 | 0.00 | 0.00 | 53 | 1014.3 |
| 20260502045705 | 56 | 315 | 6.1 | 13.9 | 0.00 | 0.00 | 0.00 | 53 | 1014.4 |
| 20260502045205 | 56 | 335 | 7.8 | 13.9 | 0.00 | 0.00 | 0.00 | 54 | 1014.4 |
| 20260502044704 | 56 | 353 | 7.8 | 13.0 | 0.00 | 0.00 | 0.00 | 53 | 1014.4 |
| 20260502044204 | 56 | 331 | 7.8 | 13.0 | 0.00 | 0.00 | 0.00 | 55 | 1014.3 |
| 20260502043704 | 56 | 310 | 7.8 | 14.8 | 0.00 | 0.00 | 0.00 | 54 | 1014.2 |
| 20260502043204 | 56 | 320 | 6.1 | 18.2 | 0.00 | 0.00 | 0.00 | 55 | 1014.0 |
| 20260502041704 | 57 | 333 | 7.0 | 13.0 | 0.00 | 0.00 | 0.00 | 54 | 1014.0 |
| 20260502041204 | 57 | 333 | 7.8 | 13.0 | 0.00 | 0.00 | 0.00 | 54 | 1014.0 |
| 20260502040704 | 57 | 316 | 5.2 | 8.7 | 0.00 | 0.00 | 0.00 | 56 | 1013.9 |
| 20260502040205 | 57 | 336 | 2.6 | 13.0 | 0.00 | 0.00 | 0.00 | 56 | 1013.9 |
| 20260502035704 | 58 | 332 | 3.5 | 13.0 | 0.00 | 0.00 | 0.00 | 55 | 1014.0 |
| 20260502034705 | 58 | 307 | 0.9 | 6.1 | 0.00 | 0.00 | 0.00 | 54 | 1013.9 |
| 20260502034204 | 58 | 339 | 0.9 | 5.2 | 0.00 | 0.00 | 0.00 | 54 | 1014.0 |
| 20260502033704 | 58 | 7 | 0.9 | 8.7 | 0.00 | 0.00 | 0.00 | 53 | 1013.9 |
| 20260502033205 | 59 | 319 | 3.5 | 8.7 | 0.00 | 0.00 | 0.00 | 54 | 1013.8 |
| 20260502032705 | 58 | 306 | 6.1 | 8.7 | 0.00 | 0.00 | 0.00 | 53 | 1013.7 |
| 20260502032204 | 59 | 334 | 5.2 | 10.4 | 0.00 | 0.00 | 0.00 | 52 | 1013.5 |
| 20260502031704 | 59 | 334 | 6.1 | 10.4 | 0.00 | 0.00 | 0.00 | 52 | 1013.5 |
| 20260502030704 | 59 | 328 | 5.2 | 13.0 | 0.00 | 0.00 | 0.00 | 51 | 1013.3 |
| 20260502025705 | 59 | 310 | 7.8 | 13.9 | 0.00 | 0.00 | 0.00 | 49 | 1013.2 |
| 20260502025205 | 60 | 327 | 6.1 | 13.9 | 0.00 | 0.00 | 0.00 | 49 | 1013.2 |
| 20260502024704 | 60 | 339 | 4.3 | 12.2 | 0.00 | 0.00 | 0.00 | 49 | 1013.2 |
| 20260502024204 | 60 | 358 | 4.3 | 11.3 | 0.00 | 0.00 | 0.00 | 50 | 1013.1 |
| 20260502023704 | 60 | 321 | 6.1 | 11.3 | 0.00 | 0.00 | 0.00 | 50 | 1013.0 |
| 20260502023205 | 60 | 0 | 2.6 | 10.4 | 0.00 | 0.00 | 0.00 | 54 | 1012.9 |
| 20260502022704 | 60 | 316 | 1.7 | 7.0 | 0.00 | 0.00 | 0.00 | 56 | 1012.8 |
| 20260502022205 | 59 | 314 | 2.6 | 7.0 | 0.00 | 0.00 | 0.00 | 57 | 1012.6 |
| 20260502021704 | 60 | 109 | 0.0 | 0.0 | 0.00 | 0.00 | 0.00 | 58 | 1012.4 |
| 20260502020204 | 60 | 109 | 1.7 | 5.2 | 0.00 | 0.00 | 0.00 | 57 | 1012.0 |
| 20260502015204 | 59 | 166 | 0.9 | 2.6 | 0.00 | 0.00 | 0.00 | 57 | 1012.0 |
| 20260502014705 | 59 | 82 | 0.0 | 0.0 | 0.00 | 0.00 | 0.00 | 57 | 1012.0 |
| 20260502014204 | 59 | 82 | 0.0 | 2.6 | 0.00 | 0.00 | 0.00 | 58 | 1012.0 |
| 20260502013705 | 59 | 82 | 0.0 | 2.6 | 0.00 | 0.00 | 0.00 | 59 | 1012.0 |
| 20260502013204 | 59 | 97 | 0.0 | 2.6 | 0.00 | 0.00 | 0.00 | 58 | 1012.0 |
| 20260502012205 | 59 | 83 | 0.0 | 0.0 | 0.00 | 0.00 | 0.00 | 57 | 1011.7 |
| 20260502011704 | 60 | 83 | 0.0 | 0.0 | 0.00 | 0.00 | 0.00 | 56 | 1011.7 |
| 20260502011205 | 60 | 83 | 0.0 | 1.7 | 0.00 | 0.00 | 0.00 | 55 | 1011.5 |
| 20260502010704 | 60 | 83 | 0.0 | 2.6 | 0.00 | 0.00 | 0.00 | 53 | 1011.5 |
| 20260502010204 | 60 | 83 | 1.7 | 4.3 | 0.00 | 0.00 | 0.00 | 53 | 1011.5 |
| 20260502005704 | 60 | 142 | 0.0 | 4.3 | 0.00 | 0.00 | 0.00 | 52 | 1011.4 |
| 20260502005204 | 61 | 160 | 0.0 | 6.1 | 0.00 | 0.00 | 0.00 | 51 | 1011.3 |
| 20260502004705 | 61 | 160 | 1.7 | 6.1 | 0.00 | 0.00 | 0.00 | 51 | 1011.2 |
| 20260502003705 | 61 | 181 | 0.9 | 4.3 | 0.00 | 0.00 | 0.00 | 51 | 1011.2 |
| 20260502002705 | 62 | 144 | 0.0 | 7.0 | 0.00 | 0.00 | 0.00 | 50 | 1011.1 |
| 20260502002206 | 62 | 177 | 1.7 | 7.0 | 0.00 | 0.00 | 0.00 | 48 | 1011.0 |
| 20260502001704 | 62 | 121 | 2.6 | 5.2 | 0.00 | 0.00 | 0.00 | 47 | 1010.9 |
| 20260502001204 | 63 | 344 | 0.0 | 1.7 | 0.00 | 0.00 | 0.00 | 49 | 1010.9 |
| 20260502000705 | 63 | 344 | 0.0 | 6.1 | 0.00 | 0.00 | 0.00 | 48 | 1010.8 |
| 20260501235704 | 62 | 119 | 0.9 | 11.3 | 0.00 | 0.00 | 0.00 | 47 | 1010.4 |
| 20260501235204 | 63 | 171 | 2.6 | 11.3 | 0.00 | 0.00 | 0.00 | 45 | 1010.2 |
| 20260501234706 | 63 | 162 | 2.6 | 7.0 | 0.00 | 0.00 | 0.00 | 46 | 1010.0 |
| 20260501234205 | 63 | 163 | 0.9 | 7.0 | 0.00 | 0.00 | 0.00 | 47 | 1010.1 |
| 20260501233205 | 63 | 151 | 3.5 | 8.7 | 0.00 | 0.00 | 0.00 | 44 | 1010.1 |
| 20260501232704 | 64 | 141 | 1.7 | 8.7 | 0.00 | 0.00 | 0.00 | 44 | 1010.1 |
| 20260501232205 | 64 | 155 | 2.6 | 10.4 | 0.00 | 0.00 | 0.00 | 43 | 1010.2 |
| 20260501231705 | 64 | 115 | 1.7 | 10.4 | 0.00 | 0.00 | 0.00 | 43 | 1010.1 |
| 20260501231205 | 65 | 118 | 5.2 | 10.4 | 0.00 | 0.00 | 0.00 | 42 | 1010.2 |
| 20260501230704 | 65 | 145 | 6.1 | 10.4 | 0.00 | 0.00 | 0.00 | 42 | 1010.1 |
| 20260501230205 | 65 | 149 | 5.2 | 8.7 | 0.00 | 0.00 | 0.00 | 41 | 1010.1 |
| 20260501225704 | 66 | 174 | 2.6 | 7.8 | 0.00 | 0.00 | 0.00 | 41 | 1010.1 |
| 20260501225204 | 66 | 177 | 2.6 | 13.0 | 0.00 | 0.00 | 0.00 | 40 | 1010.1 |
| 20260501224705 | 66 | 148 | 1.7 | 13.0 | 0.00 | 0.00 | 0.00 | 41 | 1010.1 |
| 20260501224205 | 66 | 157 | 5.2 | 8.7 | 0.00 | 0.00 | 0.00 | 40 | 1010.1 |
| 20260501223704 | 66 | 193 | 4.3 | 8.7 | 0.00 | 0.00 | 0.00 | 40 | 1010.1 |
| 20260501223204 | 66 | 146 | 3.5 | 12.2 | 0.00 | 0.00 | 0.00 | 40 | 1010.1 |
| 20260501222705 | 66 | 185 | 5.2 | 12.2 | 0.00 | 0.00 | 0.00 | 38 | 1010.1 |
| 20260501222204 | 67 | 143 | 6.1 | 12.2 | 0.00 | 0.00 | 0.00 | 37 | 1010.2 |
| 20260501221704 | 66 | 150 | 5.2 | 12.2 | 0.00 | 0.00 | 0.00 | 38 | 1010.3 |
| 20260501221205 | 66 | 158 | 4.3 | 12.2 | 0.00 | 0.00 | 0.00 | 38 | 1010.3 |
| 20260501220704 | 66 | 171 | 7.0 | 12.2 | 0.00 | 0.00 | 0.00 | 37 | 1010.3 |
| 20260501220204 | 67 | 152 | 2.6 | 10.4 | 0.00 | 0.00 | 0.00 | 36 | 1010.3 |
| 20260501215204 | 67 | 115 | 3.5 | 12.2 | 0.00 | 0.00 | 0.00 | 36 | 1010.4 |
| 20260501214704 | 68 | 118 | 6.1 | 13.0 | 0.00 | 0.00 | 0.00 | 37 | 1010.4 |
| 20260501213705 | 68 | 143 | 7.0 | 13.9 | 0.00 | 0.00 | 0.00 | 35 | 1010.4 |
| 20260501213204 | 68 | 173 | 5.2 | 12.2 | 0.00 | 0.00 | 0.00 | 35 | 1010.6 |
| 20260501212704 | 68 | 176 | 7.8 | 12.2 | 0.00 | 0.00 | 0.00 | 35 | 1010.7 |
| 20260501211704 | 67 | 135 | 5.2 | 10.4 | 0.00 | 0.00 | 0.00 | 38 | 1010.7 |
| 20260501211205 | 66 | 146 | 4.3 | 11.3 | 0.00 | 0.00 | 0.00 | 38 | 1010.7 |
| 20260501210704 | 66 | 147 | 6.1 | 13.0 | 0.00 | 0.00 | 0.00 | 37 | 1010.8 |
| 20260501210204 | 67 | 150 | 8.7 | 13.0 | 0.00 | 0.00 | 0.00 | 36 | 1010.8 |
| 20260501205705 | 68 | 170 | 7.0 | 12.2 | 0.00 | 0.00 | 0.00 | 37 | 1010.8 |
| 20260501205204 | 69 | 186 | 6.1 | 13.9 | 0.00 | 0.00 | 0.00 | 37 | 1010.8 |
| 20260501204704 | 67 | 132 | 6.1 | 13.9 | 0.00 | 0.00 | 0.00 | 37 | 1010.9 |
| 20260501204204 | 67 | 154 | 6.1 | 13.0 | 0.00 | 0.00 | 0.00 | 36 | 1011.0 |
| 20260501203205 | 67 | 159 | 5.2 | 12.2 | 0.00 | 0.00 | 0.00 | 36 | 1011.0 |
| 20260501202704 | 67 | 160 | 4.3 | 12.2 | 0.00 | 0.00 | 0.00 | 38 | 1011.2 |
| 20260501202205 | 67 | 169 | 7.0 | 12.2 | 0.00 | 0.00 | 0.00 | 35 | 1011.2 |
| 20260501201704 | 68 | 140 | 5.2 | 11.3 | 0.00 | 0.00 | 0.00 | 33 | 1011.3 |
| 20260501201205 | 68 | 182 | 4.3 | 11.3 | 0.00 | 0.00 | 0.00 | 33 | 1011.4 |
| 20260501200704 | 69 | 174 | 5.2 | 11.3 | 0.00 | 0.00 | 0.00 | 33 | 1011.4 |
| 20260501200204 | 68 | 135 | 5.2 | 10.4 | 0.00 | 0.00 | 0.00 | 36 | 1011.7 |
| 20260501195204 | 69 | 188 | 5.2 | 11.3 | 0.00 | 0.00 | 0.00 | 36 | 1011.8 |
| 20260501194704 | 69 | 188 | 4.3 | 11.3 | 0.00 | 0.00 | 0.00 | 33 | 1012.0 |
| 20260501194205 | 68 | 122 | 2.6 | 10.4 | 0.00 | 0.00 | 0.00 | 37 | 1012.2 |
| 20260501193704 | 67 | 147 | 6.1 | 11.3 | 0.00 | 0.00 | 0.00 | 38 | 1012.3 |
| 20260501193204 | 67 | 153 | 3.5 | 11.3 | 0.00 | 0.00 | 0.00 | 34 | 1012.5 |
| 20260501192704 | 68 | 181 | 5.2 | 10.4 | 0.00 | 0.00 | 0.00 | 36 | 1012.4 |
| 20260501192204 | 66 | 189 | 2.6 | 8.7 | 0.00 | 0.00 | 0.00 | 33 | 1012.5 |
| 20260501190204 | 67 | 151 | 6.1 | 12.2 | 0.00 | 0.00 | 0.00 | 35 | 1012.9 |
| 20260501185704 | 66 | 159 | 5.2 | 12.2 | 0.00 | 0.00 | 0.00 | 37 | 1012.9 |
| 20260501185204 | 67 | 164 | 4.3 | 10.4 | 0.00 | 0.00 | 0.00 | 35 | 1013.1 |
| 20260501184705 | 67 | 154 | 4.3 | 10.4 | 0.00 | 0.00 | 0.00 | 36 | 1013.0 |
| 20260501184205 | 67 | 195 | 1.7 | 13.9 | 0.00 | 0.00 | 0.00 | 32 | 1013.1 |
| 20260501183204 | 66 | 176 | 4.3 | 12.2 | 0.00 | 0.00 | 0.00 | 38 | 1013.3 |
| 20260501182705 | 65 | 182 | 5.2 | 12.2 | 0.00 | 0.00 | 0.00 | 34 | 1013.4 |
| 20260501182204 | 65 | 238 | 5.2 | 12.2 | 0.00 | 0.00 | 0.00 | 36 | 1013.4 |
| 20260501181704 | 65 | 150 | 5.2 | 11.3 | 0.00 | 0.00 | 0.00 | 37 | 1013.5 |
| 20260501181204 | 66 | 132 | 6.1 | 11.3 | 0.00 | 0.00 | 0.00 | 37 | 1013.6 |
| 20260501180704 | 65 | 195 | 2.6 | 12.2 | 0.00 | 0.00 | 0.00 | 40 | 1013.6 |
| 20260501180204 | 66 | 205 | 3.5 | 12.2 | 0.00 | 0.00 | 0.00 | 36 | 1013.8 |
| 20260501175705 | 65 | 174 | 6.1 | 11.3 | 0.00 | 0.00 | 0.00 | 38 | 1013.9 |
| 20260501175205 | 65 | 198 | 4.3 | 11.3 | 0.00 | 0.00 | 0.00 | 43 | 1013.9 |
| 20260501173704 | 64 | 58 | 1.7 | 8.7 | 0.00 | 0.00 | 0.00 | 39 | 1014.2 |
| 20260501173204 | 64 | 220 | 2.6 | 8.7 | 0.00 | 0.00 | 0.00 | 41 | 1014.3 |
| 20260501172705 | 64 | 128 | 2.6 | 7.8 | 0.00 | 0.00 | 0.00 | 43 | 1014.3 |